Location: Neuvy Saint Sepulchre
(46.5953°N, 1.8122°E)
Time: 05:37:26
(UTC+01:00)

ISS - Pass Details

Date: 05 December 2019
Orbit: 411 x 421 km, 51.6° (Epoch: 10 December)

Event Time Altitude Azimuth Distance (km) Brightness Sun altitude
Rises 19:11:38 0° 296° (WNW) 2,361 0.9 -20.8°
Reaches altitude 10° 19:13:44 10° 298° (WNW) 1,498 -0.3 -21.1°
Enters shadow 19:16:24 51° 318° (NW) 533 -3.1 -21.6°
